#timestamp,LO_Frequency,Hit,StdDev 
1565013615.7,286047002.0,N
1565013635.6,286047001.7,N
1565013655.4,286047004.4,Y
1565013675.3,286047002.4,P
1565013695.1,286047002.3,N
1565013696.0,286047002.3,N
1565013715.8,286047002.5,Y
1565013735.7,286046998.1,P
1565013755.5,286046998.5,N
1565013775.3,286046999.0,N
1565013795.2,286046999.2,N
1565013815.0,286046999.0,N
1565013815.9,286046999.0,N
1565013835.8,286046999.3,N
1565013855.6,286046999.0,N
1565013875.4,286046998.6,N
1565013895.3,286046998.7,N
1565013915.1,286046998.4,N
1565013935.9,286046999.0,N
1565013955.7,286046998.9,N
1565013975.5,286046998.9,N
1565013995.4,286046996.9,Y
1565014015.2,286046998.7,P
1565014035.0,286047001.1,P
1565014035.9,286047001.1,N
1565014055.8,286047001.0,N
1565014075.6,286047000.3,N
1565014095.5,286046999.7,N
1565014115.3,286047002.7,N
1565014135.1,286047000.3,N
1565014155.9,286047000.4,N
1565014175.7,286047000.3,N
1565014195.6,286047000.7,N
1565014215.4,286046998.2,N
1565014235.2,286047000.7,N
1565014255.1,286047000.0,N
1565014256.0,286047000.0,N
1565014275.8,286047000.4,N
1565014295.6,286047000.0,N
1565014315.5,286047002.7,N
1565014335.3,286046999.7,N
1565014355.2,286047001.0,N
1565014375.9,286047000.7,N
1565014395.7,286047000.8,N
1565014415.6,286046998.2,N
1565014435.4,286047000.9,N
1565014455.2,286047001.2,N
1565014475.1,286047000.4,N
1565014476.0,286047000.4,N
1565014495.8,286047001.0,N
1565014515.7,286047001.0,N
1565014535.5,286047000.4,N
1565014555.3,286047000.4,N
1565014575.2,286047000.9,N
1565014595.0,286046999.8,N
1565014595.9,286046999.8,N
1565014615.8,286047001.9,N
1565014635.6,286047002.1,N
1565014655.4,286047002.0,N
1565014675.3,286047002.0,N
1565014695.1,286047004.0,Y
1565014715.9,286047001.8,P
1565014735.7,286047001.7,N
1565014755.5,286047001.7,P
1565014775.4,286047004.0,Y
1565014795.2,286046999.8,P
1565014815.0,286047000.2,N
1565014846.0,286046998.6,E
1565014855.9,286046999.9,N
1565014875.7,286047002.7,P
1565014895.6,286046999.7,N
1565014915.4,286047001.9,N
1565014935.3,286047002.1,N
1565014955.1,286047001.6,N
1565014956.0,286047001.6,N
1565014975.8,286047002.3,N
1565014995.7,286047002.4,N
1565015015.5,286047002.3,N
1565015035.3,286047001.6,N
1565015055.2,286047002.1,N
1565015075.0,286047001.6,N
1565015075.9,286047001.6,N
1565015095.8,286047002.5,N
1565015115.6,286047003.7,Y
1565015135.4,286047000.2,P
1565015155.3,286047000.3,N
1565015175.1,286047002.8,P
1565015195.9,286046999.8,N
1565015215.7,286047000.2,N
1565015235.5,286047000.5,N
1565015255.4,286047000.9,N
1565015275.2,286047002.8,N
1565015295.1,286047000.5,N
1565015296.0,286047000.5,N
1565015315.8,286047000.0,N
1565015335.6,286047002.7,N
1565015355.5,286047001.6,N
1565015375.3,286047002.7,N
1565015395.1,286047002.0,N
1565015415.9,286047002.2,N
1565015435.7,286047001.5,N
1565015455.6,286047002.2,N
1565015475.4,286047002.3,N
1565015495.2,286046999.8,N
1565015515.1,286046999.9,N
1565015516.0,286046999.9,N
1565015535.8,286047002.3,N
1565015555.7,286047000.0,N
1565015575.5,286046998.1,N
1565015595.3,286046998.1,N
1565015615.2,286046998.9,N
1565015635.0,286046999.0,N
1565015635.9,286046999.0,N
1565015655.8,286047000.9,N
1565015675.6,286046999.0,N
1565015695.4,286046996.7,N
1565015715.3,286046999.5,N
1565015735.1,286046999.4,N
1565015755.8,286046999.4,N
1565015775.7,286046999.1,N
1565015795.5,286046998.7,N
1565015815.4,286046999.0,N
1565015835.2,286046998.4,N
1565015855.0,286047000.8,N
1565015855.9,286047000.8,N
1565015875.8,286047001.2,N
1565015895.6,286047000.8,N
1565015915.5,286047000.0,N
1565015935.3,286047000.8,N
1565015955.1,286046999.6,N
1565015975.9,286046999.5,N
1565015995.7,286046998.6,N
1565016015.5,286046997.0,N
1565016035.4,286046996.7,N
1565016055.2,286046999.6,N
1565016075.1,286046998.5,N
1565016076.0,286046998.5,N
1565016095.8,286046999.1,N
1565016115.6,286046999.4,N
1565016135.5,286046996.6,N
1565016155.3,286046999.2,N
1565016175.2,286046997.0,N
1565016195.9,286046997.0,N
1565016215.7,286046997.5,N
1565016235.6,286046997.0,N
1565016255.4,286046997.0,N
1565016275.3,286046997.8,N
1565016295.1,286046997.7,N
1565016296.0,286046997.7,N
1565016315.8,286046996.9,N
1565016335.7,286046997.2,N
1565016355.5,286046997.1,N
1565016375.3,286046999.2,N
1565016395.2,286046997.2,N
1565016415.0,286046997.5,N
1565016415.9,286046997.5,N
1565016435.8,286046994.9,Y
1565016455.6,286046999.1,P
1565016475.4,286046999.6,N
1565016495.3,286046997.1,P
1565016515.1,286046996.9,Y
1565016535.9,286046998.9,P
1565016555.7,286046998.3,P
1565016575.5,286046998.3,P
1565016595.4,286047000.8,Y
1565016615.2,286046999.9,P
1565016635.1,286047000.1,N
1565016636.0,286047000.1,N
1565016655.8,286047002.4,Y
1565016675.6,286047001.9,P
1565016695.5,286046999.9,N
1565016715.3,286046999.9,N
1565016735.2,286047000.5,N
1565016755.0,286046999.8,N
1565016755.9,286046999.8,N
1565016775.8,286047000.2,N
1565016795.6,286047002.3,Y
1565016815.4,286047001.6,P
1565016835.3,286047003.9,P
1565016855.1,286047001.8,N
1565016875.9,286047001.4,N
1565016895.7,286047004.0,Y
1565016915.5,286047002.4,P
1565016935.4,286047001.9,P
1565016955.2,286047002.6,P
1565016975.0,286047001.9,Y
1565016976.0,286047001.9,P
1565016995.8,286046998.7,P
1565017015.6,286047000.4,N
1565017035.5,286047000.7,N
1565017055.3,286047001.2,N
1565017075.1,286047000.7,N
1565017095.9,286046998.3,N
1565017115.7,286046998.1,N
1565017135.6,286046998.5,N
1565017155.4,286046998.8,N
1565017175.2,286046998.4,N
1565017195.1,286046998.8,N
1565017196.0,286046998.8,N
